Simultaneous Nadir Overpasses (SNOs) Predictions

Prediction of SNOs between AQUA and NOAA-19 Satellite Orbit:

Table of predicted SNOs for the next 14.0 days since TLE Epoch: 1/29/2022
Index Date (AQUA) Time (AQUA) Lat,Lon (AQUA) SZA (AQUA ) Date (NOAA-19) Time (NOAA-19) Lat,Lon (NOAA-19) SZA (NOAA-19 ) Distance(km) Time Diff (sec)
1 01/31/2022 05:39:37 78.03, 76.48 96.17 01/31/2022 05:39:03 78.04, 76.45 96.20 1.79 34
2 01/31/2022 06:29:04 -78.06,-116.06 83.80 01/31/2022 06:29:58 -78.07,-116.11 83.80 1.42 54
3 02/02/2022 11:13:17 -77.94, 173.43 84.57 02/02/2022 11:12:05 -77.89, 172.44 84.51 23.70 72
4 02/02/2022 12:02:46 78.04, -19.36 95.55 02/02/2022 12:03:05 78.07, -19.34 95.57 3.01 19
5 02/04/2022 17:36:27 -78.01, 77.37 85.15 02/04/2022 17:36:04 -78.02, 77.26 85.12 3.08 23
6 02/04/2022 18:25:55 78.06,-115.24 94.91 02/04/2022 18:27:08 78.05,-115.37 94.89 3.25 73
7 02/06/2022 23:10:09 78.00, 173.99 94.16 02/06/2022 23:09:11 78.02, 174.06 94.20 3.09 58
8 02/06/2022 23:59:36 -78.03, -18.53 85.81 02/07/2022 00:00:06 -78.04, -18.59 85.81 1.32 30
9 02/09/2022 05:33:18 78.03, 78.05 93.49 02/09/2022 05:33:13 78.04, 78.20 93.49 3.58 5
10 02/09/2022 06:22:54 -78.45,-116.37 85.97 02/09/2022 06:23:57 -78.45,-111.94 86.31 98.57 63
11 02/11/2022 11:06:58 -77.98, 174.89 87.31 02/11/2022 11:06:12 -77.98, 174.73 87.28 3.81 46



Historial Predications of SNOs between AQUA and NOAA-19
